Location: Clanezzo
(45.7500°N, 9.6000°E)
Time: 04:31:11
(UTC+00:00)

Cosmos 1937 Rocket - Pass Details

Date: 12 May 2021
Orbit: 746 x 781 km, 74.0° (Epoch: 18 June)

Event Time Altitude Azimuth Distance (km) Brightness Sun altitude
Exits shadow 21:31:13 48° 130° (SE) 972 3.6 -21.5°
Maximum altitude 21:31:50 51° 105° (ESE) 938 3.6 -21.5°
Drops below altitude 10° 21:36:50 10° 31° (NNE) 2,285 6.4 -21.9°
Sets 21:39:15 0° 26° (NNE) 3,220 7.3 -22.1°
